リニア-ニート彗星

193P/LINEAR-NEAT (2008)

English version
Home page
Total 6,336 html files since Dec. 4, 1995
Updated on October 27, 2007

---------------------------------------------------------------------

・ プロフィール

符号 193P/2007 U2
検出日 2007年10月21日
検出光度 19.8等
検出者 K. Sarneczky and L. L. Kiss (Siding Spring)

・ 軌道要素

                    Epoch = 2008 Feb. 24.0 TT
     T = 2008 Feb. 20.4955 TT         Peri. =   8.2860
     e = 0.395943                     Node  = 335.2570  2000.0
     q = 2.155746 AU                  Incl. =  10.7041
       a =  3.568779 AU    n = 0.1461923    P =   6.742 years

・ 光度変化

        m1 = 12.5 + 5 logΔ + 10.0 log r

---------------------------------------------------------------------

軌道要素は、IAUC 8885に掲載されたものです。
光度グラフはComet for Windowsで作成したものです。

---------------------------------------------------------------------

Copyright(C) 1995-2008 Seiichi Yoshida (comet@aerith.net). All rights reserved.